    Observer details:
    012 Uccle.  Observers H. Debehogne, E. W. Elst.  0.85-m f/2.5 Schmidt + CCD.
    046 Klet.  Observers J. Ticha, M. Tichy, Z. Moravec, P. Jelinek.  0.57-m f/5.2
        reflector + CCD.
    104 San Marcello Pistoiese.  Observers L. Tesi, A. Boattini, M. Tombelli.
        Measurers G. Forti, L. Tesi, A. Boattini, M. Tombelli.  0.40-m f/5
        reflector + CCD.
    106 Crni Vrh.  Observer H. Mikuz.  0.36-m f/6.7 Schmidt-Cassegrain + CCD.
    113 Volkssternwarte Drebach, Schoenbrunn.  Observers G. Lehmann, J. Kandler,
        J. Lehmann.  0.50-m f/4.0 reflector + CCD.
    118 Modra.  Observers L. Kornos, P. Koleny.  0.6-m f/5.5 reflector + CCD.
    151 Eschenberg Observatory, Winterthur.  Observer M. Griesser.  0.40-m f/5.8
        Hypergraph.
    163 Roeser Observatory, Luxembourg.  Observer M. Dawson.  0.457-m f/4.5
        reflector + CCD.
    557 Ondrejov.  Observers P. Pravec, P. Kusnirak.  0.65-m f/3.6 reflector + CCD.
    587 Sormano.  Observers M. Cavagna, M. Banfi.  0.5-m reflector + CCD.
    611 Starkenburg.  Observer M. Busch.  0.45-m f/4.4 reflector + CCD.
    658 National Research Council of Canada.  Observer D. D. Balam.  1.82-m
        Plaskett reflector + CCD.
    670 Camarillo.  Observer J. E. Rogers.  0.30-m f/6.7 Helin Telescope + CCD.
    704 Lincoln Laboratory ETS, New Mexico.  Observers M. Blythe, F. Shelly,
        M. Bezpalko, M. Elowitz, R. Huber, L. Manguso.  Measurers J. Stuart,
        R. Sayer, J. B. Evans, H. Viggh.  1.0-m f/2.15 reflector + CCD.
    734 Farpoint Observatory.  Observer G. Hug.  0.30-m Schmidt-Cassegrain + CCD.
    808 El Leoncito.  Observers C. E. Lopez, H. S. Lepez.  0.5-m f/7.5 double
        astrograph + CCD.
    859 Wykrota Observatory-CEAMIG.  Observers C. Jacques, L. Duczmal, J. Duczmal,
        C. Magno.  0.3-m f/3.3 Schmidt-Cassegrain + CCD.
    860 Valinhos.  Observer P. R. Holvorcem.  0.36-m f/3.6 Schmidt-Cassegrain
        + CCD.
    952 Marxuquera.  Observer J. J. Gomez.  0.25-m f/3.3 Schmidt-Cassegrain + CCD.
    
    Orbital elements:
    2000 QV7                                                             PHA 0.023
    Epoch 2000 Aug. 24.0 TT = JDT 2451780.5                 Williams
    M  37.99132              (2000.0)            P               Q
    n   0.59205538     Peri.   79.18175     -0.58001129     +0.81185621
    a   1.4046275      Node   154.99789     -0.79549684     -0.54680342
    e   0.5217300      Incl.    9.10826     -0.17541861     -0.20468394
    P   1.66           H   21.2           G   0.15
    From 84 observations 2000 Aug. 25-27.
    
    Ephemeris:
    2000 QV7                 a,e,i = 1.40, 0.52, 9                   q = 0.6718
    Date    TT    R. A. (2000) Decl.     Delta      r     Elong.  Phase     V
    2000 08 24    22 27.31   -02 19.4    0.086    1.096   170.5     8.7    16.7
    2000 08 29    22 19.60   -11 17.8    0.130    1.140   176.6     3.0    17.4
    2000 09 03    22 15.87   -15 37.0    0.177    1.183   168.5     9.8    18.4
    2000 09 08    22 14.13   -17 59.4    0.227    1.226   162.1    14.6    19.2
    2000 09 13    22 13.66   -19 21.6    0.279    1.267   156.6    18.4    19.9
    2000 09 18    22 14.16   -20 08.1    0.334    1.308   151.6    21.4    20.4
    2000 09 23    22 15.44   -20 31.2    0.391    1.348   147.0    23.9    20.9
    2000 09 28    22 17.43   -20 38.0    0.450    1.387   142.6    26.0    21.4
    2000 10 03    22 20.06   -20 32.6    0.512    1.424   138.4    27.8    21.8
    2000 10 08    22 23.28   -20 17.9    0.576    1.461   134.4    29.3    22.1
    2000 10 13    22 27.01   -19 56.0    0.643    1.497   130.5    30.4    22.4
    
    Gareth V. Williams           (C) Copyright 2000 MPC           M.P.E.C. 2000-Q31
    

    Read MPEC 2000-Q30 Read MPEC 2000-Q32


    MPEC number:

    Enter an MPEC number in one of the following forms:

    • 1997-B01 (the full form)
    • J97B01 (the packed version of the full form)
    • B01 (the abbreviated form)